Estación de Monte Patria - Chilecito

Ultimos registro cada 15 minutos 70
Estación Fecha / Hora Temperatura Humedad Lluvia Velocidad Dirección Radiación Presion
70 Monte Patria - Chilecito 06-05-2026 17:15 19,3 53,4 0 1 256 14,4 939,8
69 Monte Patria - Chilecito 06-05-2026 17:00 19,9 50 0 0,5 271 29,4 939,5
68 Monte Patria - Chilecito 06-05-2026 16:45 20,7 43 0 0,5 272 44,4 939,5
67 Monte Patria - Chilecito 06-05-2026 16:30 21,2 38,6 0 0,5 293 70,6 939,1
66 Monte Patria - Chilecito 06-05-2026 16:15 22,9 35,5 0 0,5 286 165,6 938,9
65 Monte Patria - Chilecito 06-05-2026 16:00 23,9 33 0 0,5 263 380,6 939
64 Monte Patria - Chilecito 06-05-2026 15:45 23,8 32,9 0 0,5 305 438,1 939,2
63 Monte Patria - Chilecito 06-05-2026 15:30 23,9 32,6 0 0,5 284 424,4 939,3
62 Monte Patria - Chilecito 06-05-2026 15:15 23,8 32 0 0,5 317 105,6 939,4
61 Monte Patria - Chilecito 06-05-2026 15:00 24,1 30,8 0 0,5 305 101,9 939,5
60 Monte Patria - Chilecito 06-05-2026 14:45 24,2 30,7 0 0,5 284 493,1 939,4
59 Monte Patria - Chilecito 06-05-2026 14:30 23,7 31,8 0 0,5 256 81,9 939,5
58 Monte Patria - Chilecito 06-05-2026 14:15 23,5 31,5 0 0,5 254 535,6 939,6
57 Monte Patria - Chilecito 06-05-2026 14:00 23,5 31,6 0 0,5 254 553,1 939,6
56 Monte Patria - Chilecito 06-05-2026 13:45 23,3 32,2 0 1 271 568,1 939,8
55 Monte Patria - Chilecito 06-05-2026 13:30 23 33,4 0 1 263 576,9 940
54 Monte Patria - Chilecito 06-05-2026 13:15 23,3 33,6 0 1 248 585,6 939,8
53 Monte Patria - Chilecito 06-05-2026 13:00 23,4 35,2 0 0,5 281 590,6 940
52 Monte Patria - Chilecito 06-05-2026 12:45 23,5 36,4 0 0,5 295 591,9 940,1
51 Monte Patria - Chilecito 06-05-2026 12:30 22,6 42,8 0 0,5 326 590,6 940,4
50 Monte Patria - Chilecito 06-05-2026 12:15 22,5 43,5 0 0,5 341 589,4 940,4
49 Monte Patria - Chilecito 06-05-2026 12:00 22,1 45,1 0 0,5 317 575,6 940,8
48 Monte Patria - Chilecito 06-05-2026 11:45 21,3 47,9 0 0,5 323 566,9 941,1
47 Monte Patria - Chilecito 06-05-2026 11:30 20,9 51 0 0 331 553,1 941,3
46 Monte Patria - Chilecito 06-05-2026 11:15 20 52,9 0 0,5 336 54,4 941,4
45 Monte Patria - Chilecito 06-05-2026 11:00 19,6 54,9 0 0 323 53,1 941,5
44 Monte Patria - Chilecito 06-05-2026 10:45 19,4 53,4 0 0 336 88,1 941,4
43 Monte Patria - Chilecito 06-05-2026 10:30 19,5 52,2 0 0 321 470,6 941,3
42 Monte Patria - Chilecito 06-05-2026 10:15 20 49,2 0 0 352 441,9 941,3
41 Monte Patria - Chilecito 06-05-2026 10:00 18,4 53,9 0 0 6 413,1 941,1
40 Monte Patria - Chilecito 06-05-2026 09:45 16,9 58,8 0 0 6 386,9 941,2
39 Monte Patria - Chilecito 06-05-2026 09:30 15,9 62 0 0 6 81,9 941,4
38 Monte Patria - Chilecito 06-05-2026 09:15 15,1 66,2 0 0 8 84,4 941,5
37 Monte Patria - Chilecito 06-05-2026 09:00 14 70,8 0 0 8 218,1 941,9
36 Monte Patria - Chilecito 06-05-2026 08:45 12,7 77,8 0 0 8 48,1 941,9
35 Monte Patria - Chilecito 06-05-2026 08:30 11 80,5 0 0 7 59,4 941,7
34 Monte Patria - Chilecito 06-05-2026 08:15 10,9 81,7 0 0 6 65,6 941,7
33 Monte Patria - Chilecito 06-05-2026 08:00 9,9 83,3 0 0 6 38,1 941,3
32 Monte Patria - Chilecito 06-05-2026 07:45 9,6 82,9 0 0 6 23,1 941,3
31 Monte Patria - Chilecito 06-05-2026 07:30 9,9 81,5 0 0 6 6,9 940,8
30 Monte Patria - Chilecito 06-05-2026 07:15 10,1 80,7 0 0 8 0,6 940,7
29 Monte Patria - Chilecito 06-05-2026 07:00 10,1 82,9 0 0 8 0,6 940,4
28 Monte Patria - Chilecito 06-05-2026 06:45 9,7 84,9 0 0 8 0,6 940
27 Monte Patria - Chilecito 06-05-2026 06:30 9,1 85,7 0 0 8 0,6 939,9
26 Monte Patria - Chilecito 06-05-2026 06:15 9,2 86 0 0 8 0,6 939,6
25 Monte Patria - Chilecito 06-05-2026 06:00 8,9 85,5 0 0 8 0,6 939,5
24 Monte Patria - Chilecito 06-05-2026 05:45 9,1 84,6 0 0 8 0,6 939,4
23 Monte Patria - Chilecito 06-05-2026 05:30 9,3 85,1 0 0 8 0,6 939,4
22 Monte Patria - Chilecito 06-05-2026 05:15 9 85,6 0 0 8 0,6 939,3
21 Monte Patria - Chilecito 06-05-2026 05:00 9,7 82,5 0 0 8 0,6 939,1
20 Monte Patria - Chilecito 06-05-2026 04:45 9,1 84,6 0 0 8 0,6 939
19 Monte Patria - Chilecito 06-05-2026 04:30 9,4 84,6 0 0 8 0,6 938,9
18 Monte Patria - Chilecito 06-05-2026 04:15 9,5 82,5 0 0 8 0,6 938,8
17 Monte Patria - Chilecito 06-05-2026 04:00 9,9 81,4 0 0 8 0,6 938,9
16 Monte Patria - Chilecito 06-05-2026 03:45 9,9 82,9 0 0 8 0,6 939
15 Monte Patria - Chilecito 06-05-2026 03:30 9,7 83,1 0 0 8 0,6 938,9
14 Monte Patria - Chilecito 06-05-2026 03:15 9,6 82,6 0 0 8 0,6 938,9
13 Monte Patria - Chilecito 06-05-2026 03:00 9,7 84,4 0 0 8 0,6 938,8
12 Monte Patria - Chilecito 06-05-2026 02:45 10 84,9 0 0 8 0,6 938,6
11 Monte Patria - Chilecito 06-05-2026 02:30 10,1 85,7 0 0 8 0,6 938,8
10 Monte Patria - Chilecito 06-05-2026 02:15 10,1 84,3 0 0 8 0,6 938,7
9 Monte Patria - Chilecito 06-05-2026 02:00 11,1 79 0 0 8 0,6 938,7
8 Monte Patria - Chilecito 06-05-2026 01:45 11,1 81,8 0 0 8 0,6 938,6
7 Monte Patria - Chilecito 06-05-2026 01:30 10,1 82,9 0 0 8 0,6 938,6
6 Monte Patria - Chilecito 06-05-2026 01:15 10,4 81,1 0 0 8 0,6 938,5
5 Monte Patria - Chilecito 06-05-2026 01:00 10,7 80,8 0 0 8 0,6 938,3
4 Monte Patria - Chilecito 06-05-2026 00:45 11 77,8 0 0 8 0,6 938,3
3 Monte Patria - Chilecito 06-05-2026 00:30 11,2 78,7 0 0 8 0,6 938,4
2 Monte Patria - Chilecito 06-05-2026 00:15 11,5 78,6 0 0 8 0,6 938,4
1 Monte Patria - Chilecito 06-05-2026 00:00 11,6 77,9 0 0 8 0,6 938,4